Showing default

VSP ROSE, 59124

Orbit data source: Space-Track

VSP ROSE, 59124 is a payload satellite owned by Aerospacelab (BE) in SSO that was launched on Mon, 04 Mar 2024 UTC via an FALCON 9 launch vehicle from the Air Force Western Test Range (AFWTR). Payloads include a variety of satellites, spacecraft, and rockets equipped with specific instruments for various scientific and technological missions. These include communications satellites like Starlink; space stations such as the ISS; scientific satellites like the Hubble; Earth observation satellites from companies like Planet Labs, Umbra, and HawkEye 360; GPS; miniature CubeSats for education and research; and military/defense satellites.

Loading next visibility...
VSP ROSE details
Identifier
59124, 2024-043AC
Orbit
SSO
Last TLE update6 hours ago
Origin
Flag of BEAerospacelab (BE / BEL)
ManufacturerAerospacelab
MissionOperational Commercial Communications
Bus & MotorAEROSP, Unknown motor
Mass~200 kg wet, ~200 kg dry
Launch date (UTC)
2024-03-04 (9 months ago)
Launch vehicle
FALCON 9
Launch site
Air Force Western Test Range (AFWTR)
Object type
Payload
Rocket body
Debris
Shape & HBRBox, 0.05 m
Radar Cross Section0.004 m², Medium (>0.1 m² and < 1m²)

Expand to show TLE details & history

TLE from 6 hours ago
0 VSP ROSE
1 59124U 24043AC  24326.12119418  .00007521  00000-0  33996-3 0  9996
2 59124  97.4927  88.4498 0013765 101.3308 258.9475 15.21147018 39631
Epoch: 2024-11-21T02:54Z
Definitive object data (Epoch: 2024-11-21T02:54:31.177Z)
Latitude0.00001°
Longitude-15.78759°
Altitude507.298 km
Speed7.609 km/s
True Right ascension05h 53m 47s
True Declination0° 00' 00"
Sunlit
Object was in full shadow at TLE epoch
Visualization TLE readout
Latitude-1.87555°
Longitude-15.28076°
Altitude507.704 km
Speed7.609 km/s
Apparent Right ascension05h 07m 27s
Apparent Declination-64° 30' 31"
Sunlit
Object is in full shadow
Visualization observer readout
Local Sidereal Time06:15:55
Azimuth187.545° SSW
Elevation-15.291°
Doppler factor1
Orbital elements
Apogee altitude508.814 km
Perigee altitude489.881 km
Semi-major axis6,877.485 km
Eccentricity0.0013765
Inclination97.4927°
RAAN88.4498°
Arg. of periapsis101.3308°
True anomaly258.79274°
Mean anomaly258.9475°
Eccentric anomaly258.87012°
Mean motion3.80539 °/min
BSTAR0.00033996
Orbital period94.6 mins
Loading maneuver chart data...
Loading historical data...
Loading historical data...
Loading historical data...
Loading historical data...
Loading historical data...
Loading historical data...
Loading historical data...

VSP ROSE Visibility forecast

Observer location: undefined°, undefined

Span
Click to sort rows by Start time (UTC) header in descending order
Start Az.
Max El. time (UTC)
Max El. Az.
Max El.
End time (UTC)
End Az.
4 mins2024-11-21 20:51:55.670Z47.626° ENE2024-11-21 20:52:55.670Z77.997° E32.321°2024-11-21 20:55:55.670Z164.766° S
4 mins2024-11-22 09:02:55.670Z222.194° SW2024-11-22 09:04:55.670Z274.697° WNW24.141°2024-11-22 09:06:55.670Z315.587° NNW
|